Stations météo

réclame
Mon MeteoGroup
Saint-Quentin, France (7061): Température de l'air & dewpoint: 13.12.2018 15:00:00 - 19.12.2018 15:00:00 (CET)Saint-Quentin, France (7061): Température de l'air 5cm: 13.12.2018 15:00:00 - 19.12.2018 15:00:00 (CET)Saint-Quentin, France (7061): Température de l'air -20cm & Température de l'air -100cm: 13.12.2018 15:00:00 - 19.12.2018 15:00:00 (CET)Saint-Quentin, France (7061): Vitesse du vent & gusts: 13.12.2018 15:00:00 - 19.12.2018 15:00:00 (CET)Saint-Quentin, France (7061): Direction du vent: 13.12.2018 15:00:00 - 19.12.2018 15:00:00 (CET)Saint-Quentin, France (7061): reduced air pressure: 13.12.2018 15:00:00 - 19.12.2018 15:00:00 (CET)Saint-Quentin, France (7061): visibility: 13.12.2018 15:00:00 - 19.12.2018 15:00:00 (CET)Saint-Quentin, France (7061): Ensoleillement: 13.12.2018 15:00:00 - 19.12.2018 15:00:00 (CET)Saint-Quentin, France (7061): Quantités de précipitations: 13.12.2018 15:00:00 - 19.12.2018 15:00:00 (CET)
Date & Time tt [°C] td [°C] tt 5cm [°C] tt -20cm [°C] tt -100cm [°C] ff [km/h] ff [knt] fx [km/h] fx [knt] dd ppp [hPa] vv [km] sd [min] rr [mm]
19.12.2018 15:00:00 - - - - - - - - - - - - - -
19.12.2018 14:00:00 9,6 6,1 9,1 6,6 8,7 20 11 36 19 SW 1011,0 20 43 0,0
19.12.2018 13:00:00 8,7 7,0 8,1 6,6 8,7 16 9 36 19 SSW 1011,5 20 0 0,0
19.12.2018 12:00:00 8,6 6,6 8,2 6,6 8,7 21 12 38 21 SSW 1012,0 19 0 0,0
19.12.2018 11:00:00 8,7 6,5 7,8 6,6 8,7 19 11 35 19 S 1011,9 20 0 0,0
19.12.2018 10:00:00 8,2 6,0 7,1 6,6 8,7 21 11 40 21 S 1011,7 20 0 0,0
19.12.2018 09:00:00 7,4 6,0 6,4 6,6 8,7 19 11 42 23 S 1011,5 20 0 0,0
19.12.2018 08:00:00 6,9 5,7 5,3 6,5 8,7 23 12 40 22 SSW 1011,3 20 0 0,0
19.12.2018 07:00:00 6,9 5,2 5,8 6,5 8,7 21 11 33 18 SSW 1011,2 20 0 0,0
19.12.2018 06:00:00 7,6 5,7 6,8 6,5 8,7 20 11 34 18 SW 1011,0 20 0 0,0
19.12.2018 05:00:00 7,3 5,9 5,8 6,5 8,7 19 11 37 20 SW 1010,8 20 0 0,0
19.12.2018 04:00:00 7,5 6,1 6,8 6,5 8,7 23 12 45 25 SW 1010,6 20 0 0,0
19.12.2018 03:00:00 7,1 6,0 6,1 6,5 8,7 22 12 37 20 SSW 1010,0 20 0 0,2
19.12.2018 02:00:00 6,3 5,3 5,4 6,5 8,7 20 11 32 17 SSW 1009,8 18 0 1,0
19.12.2018 01:00:00 5,9 4,2 5,0 6,5 8,8 20 11 38 21 S 1009,9 9 0 1,4
19.12.2018 00:00:00 6,7 2,4 5,1 6,5 8,8 22 12 38 21 S 1010,1 14 0 0,0
18.12.2018 23:00:00 6,2 1,7 5,2 6,5 8,8 16 9 28 15 SSE 1010,2 20 0 0,0
18.12.2018 22:00:00 5,7 1,8 5,1 6,5 8,8 15 8 35 19 SSE 1010,5 20 0 0,0
18.12.2018 21:00:00 6,0 1,5 5,3 6,4 8,7 20 11 33 18 SE 1010,9 20 0 0,0
18.12.2018 20:00:00 5,9 2,0 5,2 6,5 8,8 16 9 35 19 SE 1011,4 20 0 0,0
18.12.2018 19:00:00 6,0 2,3 5,5 6,4 8,8 23 12 47 25 SSE 1011,8 20 0 0,0
18.12.2018 18:00:00 6,1 2,2 5,5 6,4 8,8 24 13 43 23 SE 1012,1 20 0 0,0
18.12.2018 17:00:00 6,2 2,6 5,7 6,4 8,8 23 12 36 20 SSE 1013,7 20 0 0,0
18.12.2018 16:00:00 6,8 2,9 6,4 6,3 8,8 24 13 46 25 SSE 1014,2 20 0 0,0
18.12.2018 15:00:00 7,4 2,9 7,4 6,3 8,8 24 13 46 25 SE 1014,7 20 0 0,0
18.12.2018 14:00:00 8,0 3,6 8,4 6,2 8,8 24 13 45 24 SSE 1016,1 20 47 0,0
18.12.2018 13:00:00 8,4 3,8 9,7 6,2 8,8 26 14 41 22 SSE 1016,9 20 60 0,0
18.12.2018 12:00:00 7,6 4,4 9,0 6,2 8,8 25 14 40 21 SSE 1018,7 20 60 0,0
18.12.2018 11:00:00 6,9 5,2 6,6 6,2 8,8 25 13 38 20 SSE 1020,2 20 19 0,0
18.12.2018 10:00:00 6,2 5,5 6,0 6,1 8,8 19 10 36 20 SSE 1020,4 11 0 0,0
18.12.2018 09:00:00 6,0 5,3 5,9 6,1 8,8 21 11 36 19 S 1021,1 8 0 0,0
18.12.2018 08:00:00 5,9 5,3 5,9 6,1 8,8 20 11 34 19 S 1021,6 5 0 0,0
18.12.2018 07:00:00 6,0 5,4 6,0 6,1 8,8 20 11 33 18 S 1021,9 5 0 0,0
18.12.2018 06:00:00 6,0 5,6 6,0 6,1 8,8 18 10 29 16 SSE 1021,8 4,2 0 0,0
18.12.2018 05:00:00 6,2 5,8 6,1 6,1 8,9 16 9 31 17 S 1023,2 2,7 0 0,0
18.12.2018 04:00:00 6,2 5,6 6,1 6,1 8,9 20 11 34 19 SSW 1023,8 3,7 0 0,0
18.12.2018 03:00:00 6,2 5,8 4,7 6,1 8,9 16 9 29 16 S 1023,8 3,8 0 0,0
18.12.2018 02:00:00 5,1 4,5 2,9 6,1 8,9 14 8 25 13 S 1024,0 4,9 0 0,0
18.12.2018 01:00:00 4,9 4,3 3,3 6,1 8,9 10 5 16 9 SSE 1024,6 5 0 0,0
18.12.2018 00:00:00 5,3 4,7 3,6 6,0 8,9 9 5 21 11 SSE 1025,0 6 0 0,0
17.12.2018 23:00:00 6,3 5,6 5,7 6,0 8,9 14 7 23 12 S 1025,3 8 0 0,0
17.12.2018 22:00:00 5,8 5,2 5,5 6,0 8,9 11 6 24 13 S 1025,3 4,7 0 0,0
17.12.2018 21:00:00 5,6 4,9 5,3 6,0 8,9 18 10 33 18 SSW 1025,6 5 0 0,0
17.12.2018 20:00:00 5,7 5,0 4,0 6,0 8,9 18 10 30 16 SSW 1025,0 4,2 0 0,0
17.12.2018 19:00:00 4,9 4,3 1,5 6,0 8,9 12 7 24 13 S 1024,6 3,1 0 0,0
17.12.2018 18:00:00 4,1 3,2 0,9 5,9 8,9 11 6 18 10 S 1024,1 13 0 0,0
17.12.2018 17:00:00 6,1 4,6 4,0 5,9 9,0 11 6 24 13 SSW 1023,6 20 6 0,0
17.12.2018 16:00:00 7,7 6,0 6,7 5,8 9,0 14 8 23 13 WSW 1023,2 20 16 0,2
17.12.2018 15:00:00 7,8 5,9 7,7 5,8 9,0 17 9 40 22 WSW 1022,5 19 21 0,0
17.12.2018 14:00:00 8,4 6,5 9,3 5,7 9,0 22 12 39 21 WSW 1021,9 20 44 0,0
17.12.2018 13:00:00 8,2 6,0 10,8 5,7 9,0 18 10 34 18 SW 1021,6 19 60 0,0
17.12.2018 12:00:00 7,5 5,8 8,4 5,7 9,0 18 10 36 19 WSW 1021,3 20 53 0,0
17.12.2018 11:00:00 6,2 5,0 6,3 5,7 9,0 19 10 29 16 WSW 1021,0 11 60 0,0
17.12.2018 10:00:00 4,6 4,0 2,7 5,7 9,1 12 7 19 10 SW 1020,0 15 44 0,0
17.12.2018 09:00:00 4,1 3,5 2,8 5,7 9,0 13 7 28 15 SW 1019,4 13 0 0,0
17.12.2018 08:00:00 5,0 4,3 3,2 5,7 9,1 21 12 31 17 WSW 1018,1 20 0 0,0
17.12.2018 07:00:00 4,4 3,8 3,2 5,6 9,1 15 8 26 14 SW 1017,0 13 0 0,0
17.12.2018 06:00:00 4,4 3,8 3,2 5,6 9,1 16 9 29 15 WSW 1015,7 15 0 0,0
17.12.2018 05:00:00 5,4 4,8 4,5 5,6 9,1 20 11 34 18 WSW 1014,8 20 0 0,0
17.12.2018 04:00:00 5,9 5,3 5,5 5,5 9,1 16 9 27 15 SW 1013,9 20 0 0,0
17.12.2018 03:00:00 6,1 5,7 5,6 5,5 9,1 16 9 26 14 SW 1013,3 12 0 0,2
17.12.2018 02:00:00 5,7 5,3 5,6 5,5 9,1 13 7 23 12 S 1012,7 8 0 0,4
17.12.2018 01:00:00 5,9 5,5 5,8 5,5 9,2 14 8 26 14 S 1012,4 8 0 0,4
17.12.2018 00:00:00 5,9 5,5 5,5 5,4 9,2 13 7 25 13 S 1012,4 4,1 0 0,4
16.12.2018 23:00:00 5,7 5,3 5,4 5,4 9,2 14 8 25 13 S 1012,0 6 0 0,0
16.12.2018 22:00:00 5,6 5,2 5,4 5,4 9,2 13 7 24 13 SSE 1012,1 2,2 0 0,0
16.12.2018 21:00:00 5,3 4,9 4,6 5,3 9,2 13 7 23 12 S 1012,1 5 0 0,0
16.12.2018 20:00:00 4,5 4,1 4,4 5,3 9,2 13 7 20 11 S 1012,1 1,0 0 0,0
16.12.2018 19:00:00 4,3 3,9 3,9 5,2 9,2 13 7 22 12 S 1012,0 1,1 0 0,0
16.12.2018 18:00:00 3,7 3,3 3,5 5,2 9,2 10 5 16 8 SSE 1011,8 0,3 0 0,0
16.12.2018 17:00:00 3,4 3,0 3,6 5,2 9,2 9 5 25 13 SSE 1011,9 0,3 0 0,0
16.12.2018 16:00:00 3,5 3,1 3,8 5,2 9,3 11 6 23 13 S 1011,7 0,4 0 0,0
16.12.2018 15:00:00 3,5 3,1 4,0 5,1 9,3 10 5 20 11 S 1011,6 0,3 0 0,0
16.12.2018 14:00:00 3,6 3,2 4,3 5,1 9,3 8 4 21 12 S 1011,9 0,3 0 0,0
16.12.2018 13:00:00 3,5 3,1 4,3 5,1 9,3 11 6 22 12 SSW 1011,6 0,2 0 0,0
16.12.2018 12:00:00 3,7 3,3 3,3 5,1 9,3 13 7 23 12 SW 1012,0 0,3 0 0,0
16.12.2018 11:00:00 3,0 2,6 2,4 5,1 9,3 5 3 14 7 SSE 1012,2 0,2 0 0,0
16.12.2018 10:00:00 2,2 1,8 1,3 5,1 9,4 8 4 14 8 SW 1012,2 0,2 0 0,0
16.12.2018 09:00:00 1,4 1,0 0,8 5,1 9,4 6 3 13 7 S 1011,7 0,2 0 0,0
16.12.2018 08:00:00 0,9 0,5 0,2 5,1 9,4 8 5 11 6 SSE 1011,2 0,2 0 0,0
16.12.2018 07:00:00 0,6 0,2 0,1 5,1 9,4 6 4 9 5 SSE 1011,1 0,1 0 0,0
16.12.2018 06:00:00 0,7 0,3 0,1 5,1 9,4 5 3 11 6 S 1011,0 0,3 0 0,0
16.12.2018 05:00:00 0,4 0,0 0,1 5,1 9,4 5 3 8 4 SSE 1010,7 0,2 0 0,0
16.12.2018 04:00:00 0,3 -0,1 0,1 5,1 9,4 3 2 6 3 SSE 1010,6 0,5 0 0,0
16.12.2018 03:00:00 0,3 -0,1 0,1 5,1 9,4 4 2 8 5 SSE 1010,4 0,9 0 0,0
16.12.2018 02:00:00 0,2 -0,4 0,1 5,2 9,5 5 3 10 5 SE 1010,5 1,0 0 0,0
16.12.2018 01:00:00 0,2 -0,4 0,1 5,2 9,5 6 4 10 6 SSE 1010,8 0,1 0 0,2
16.12.2018 00:00:00 0,2 -0,5 0,1 5,2 9,5 8 4 16 8 SSE 1011,1 0,1 0 1,2
15.12.2018 23:00:00 0,1 -0,8 0,1 5,3 9,5 11 6 26 14 SE 1011,0 - 0 5,0
15.12.2018 22:00:00 0,1 -1,2 0,1 5,3 9,5 17 9 31 17 SE 1010,9 0,1 0 1,0
15.12.2018 21:00:00 -0,1 -1,5 -0,2 5,3 9,5 22 12 41 22 SE 1011,6 0,5 0 1,4
15.12.2018 20:00:00 -0,2 -1,9 -0,5 5,3 9,5 25 13 57 31 SE 1013,7 4,5 0 0,8
15.12.2018 19:00:00 -0,5 -2,6 -0,9 5,3 9,5 32 18 57 31 SE 1014,6 7 0 0,2
15.12.2018 18:00:00 -0,8 -3,0 -1,1 5,4 9,6 30 16 53 29 SE 1016,0 8 0 0,2
15.12.2018 17:00:00 -0,9 -3,1 -1,0 5,4 9,6 28 15 46 25 SE 1017,1 6 0 0,2
15.12.2018 16:00:00 -0,1 -3,8 -0,1 5,4 9,6 29 15 47 26 SSE 1018,6 7 0 0,0
15.12.2018 15:00:00 0,5 -4,2 0,6 5,4 9,6 24 13 43 23 SSE 1019,1 15 0 0,0
15.12.2018 14:00:00 0,6 -4,6 1,0 5,4 9,6 22 12 39 21 SSE 1020,3 16 5 0,0
15.12.2018 13:00:00 1,2 -4,7 1,8 5,4 9,6 23 13 43 23 SSE 1021,4 17 46 0,0
15.12.2018 12:00:00 0,4 -5,0 0,3 5,4 9,6 24 13 47 25 SSE 1022,2 17 0 0,0
15.12.2018 11:00:00 0,0 -5,0 -0,1 5,5 9,7 20 11 38 20 SSE 1023,1 17 0 0,0
15.12.2018 10:00:00 -0,3 -5,3 -1,1 5,5 9,7 21 11 34 18 SSE 1023,3 15 0 0,0
15.12.2018 09:00:00 -1,0 -5,1 -2,3 5,5 9,7 13 7 20 11 SSE 1023,5 15 0 0,0
15.12.2018 08:00:00 -1,5 -5,4 -2,4 5,6 9,7 13 7 23 13 SSE 1023,4 16 0 0,0
15.12.2018 07:00:00 -1,9 -4,9 -4,1 5,6 9,7 8 4 12 7 SSE 1024,1 13 0 0,0
15.12.2018 06:00:00 -2,2 -5,9 -5,9 5,6 9,7 4 2 9 5 SE 1024,1 16 0 0,0
15.12.2018 05:00:00 -2,1 -6,3 -6,2 5,6 9,7 4 2 6 3 ESE 1024,2 20 0 0,0
15.12.2018 04:00:00 -1,6 -6,2 -4,9 5,6 9,7 4 2 6 3 E 1024,5 20 0 0,0
15.12.2018 03:00:00 -1,1 -6,7 -3,8 5,6 9,8 2 1 16 9 SSE 1025,0 20 0 0,0
15.12.2018 02:00:00 -0,7 -6,9 -1,4 5,7 9,8 6 4 12 6 SE 1025,1 20 0 0,0
15.12.2018 01:00:00 -0,9 -5,5 -1,4 5,7 9,8 5 3 13 7 S 1025,2 19 0 0,0
15.12.2018 00:00:00 -0,7 -5,7 -1,2 5,7 9,8 5 3 13 7 SSW 1025,6 20 0 0,0
14.12.2018 23:00:00 -0,6 -5,0 -1,1 5,7 9,8 6 4 21 11 S 1025,3 19 0 0,0
14.12.2018 22:00:00 -0,3 -6,5 -0,9 5,7 9,8 10 5 22 12 ESE 1025,0 20 0 0,0
14.12.2018 21:00:00 -0,5 -5,3 -0,8 5,7 9,8 7 4 23 12 ESE 1024,7 19 0 0,0
14.12.2018 20:00:00 -0,4 -4,8 -0,8 5,8 9,9 11 6 21 11 E 1024,8 20 0 0,0
14.12.2018 19:00:00 -0,1 -6,3 -0,8 5,8 9,9 9 5 23 13 E 1024,7 20 0 0,0
14.12.2018 18:00:00 -0,2 -5,4 -0,6 5,8 9,9 5 3 15 8 E 1024,6 20 0 0,0
14.12.2018 17:00:00 0,0 -5,6 -0,2 5,8 9,9 8 4 15 8 NE 1024,3 19 0 0,0
14.12.2018 16:00:00 0,2 -6,2 0,0 5,8 9,9 0 0 16 9 N 1023,9 20 0 0,0
14.12.2018 15:00:00 0,4 -6,3 0,8 5,8 9,9 4 2 17 9 NNE 1023,3 20 0 0,0
14.12.2018 14:00:00 0,5 -5,9 1,5 5,9 9,9 6 3 18 10 E 1022,4 20 0 0,0
14.12.2018 13:00:00 0,4 -5,0 1,0 5,9 9,9 9 5 25 13 E 1022,0 20 0 0,0
14.12.2018 12:00:00 -0,1 -4,7 -0,2 6,0 10,0 11 6 19 10 ENE 1022,1 17 0 0,0
14.12.2018 11:00:00 -1,0 -3,8 -1,5 6,0 9,9 6 3 16 9 NNE 1022,9 12 0 0,0
14.12.2018 10:00:00 -1,9 -4,2 -2,9 6,1 10,0 8 5 19 10 NNE 1022,6 11 0 0,0
14.12.2018 09:00:00 -2,9 -4,8 -4,6 6,1 10,0 11 6 18 10 NNE 1022,2 9 0 0,0
14.12.2018 08:00:00 -3,6 -5,6 -4,2 6,2 10,0 12 6 21 12 NNE 1021,5 9 0 0,0
14.12.2018 07:00:00 -3,4 -5,4 -4,3 6,2 10,0 10 5 16 9 NNE 1021,2 9 0 0,0
14.12.2018 06:00:00 -2,7 -5,3 -3,7 6,2 10,0 11 6 21 11 NE 1020,4 12 0 0,0
14.12.2018 05:00:00 -2,6 -5,3 -3,4 6,3 10,0 13 7 23 12 NE 1020,1 12 0 0,0
14.12.2018 04:00:00 -2,3 -5,4 -3,1 6,4 10,0 15 8 24 13 NE 1020,0 14 0 0,0
14.12.2018 03:00:00 -1,9 -5,4 -2,9 6,4 10,0 14 8 25 14 NE 1020,3 16 0 0,0
14.12.2018 02:00:00 -2,1 -5,1 -2,9 6,5 10,0 12 7 24 13 NE 1019,8 14 0 0,0
14.12.2018 01:00:00 -1,9 -4,9 -2,7 6,5 10,0 12 7 23 12 NE 1019,6 14 0 0,0
14.12.2018 00:00:00 -1,6 -4,6 -2,8 6,5 10,1 14 8 21 12 ENE 1019,4 15 0 0,0
13.12.2018 23:00:00 -1,3 -4,6 -2,3 6,6 10,1 15 8 25 13 ENE 1019,2 16 0 0,0
13.12.2018 22:00:00 -0,9 -4,8 -2,4 6,6 10,1 12 6 21 11 NE 1019,2 19 0 0,0
13.12.2018 21:00:00 -0,8 -4,5 -2,3 6,6 10,1 10 5 25 14 ENE 1018,6 19 0 0,0
13.12.2018 20:00:00 0,0 -4,3 -1,4 6,7 10,1 16 9 30 16 E 1018,2 20 0 0,0
13.12.2018 19:00:00 0,1 -4,0 -1,6 6,7 10,1 14 8 23 12 E 1017,6 20 0 0,0
13.12.2018 18:00:00 0,5 -3,2 -0,9 6,7 10,1 13 7 21 12 ENE 1017,5 20 0 0,0
13.12.2018 17:00:00 0,7 -2,7 -0,6 6,7 10,1 10 5 22 12 ENE 1016,9 19 15 0,0
13.12.2018 16:00:00 2,3 -2,4 2,9 6,7 10,1 16 9 32 17 E 1016,2 20 60 0,0
13.12.2018 15:00:00 3,1 -2,8 4,5 6,7 10,1 21 11 44 24 E 1016,1 20 60 0,0

tt = Température de l'air
td = dewpoint
tt 5cm = Température de l'air 5cm
tt -20cm = Température de l'air -20cm
tt -100cm = Température de l'air -100cm
ff = Vitesse du vent
fx = gusts
dd = Direction du vent
ppp = reduced air pressure
vv = visibility
sd = Ensoleillement
rr = Quantités de précipitations

stations d'obs. à proximité